DLH1058 EDDF-LFMN

Flight info

Callsign DLH1058
Flight time 1h 20m
Altitude 31000
Route ANEKI2L ANEKI Y163 NATOR/N0441F370 DCT TRA DCT RIPUS DCT GERSA DCT SOSON DCT ODINA DCT ENOBA/N0379F190 Z185 BORDI
Aircraft A319/M-SDE3FGHIRWY/LB1

Departure

Time 2026-04-14 06:38
Airport Frankfurt Main Airport (EDDF)

Arrival

Time 2026-04-14 07:59
Airport Nice-Côte d'Azur Airport (LFMN)
Time Latitude Longitude Altitude Speed Heading
2026-04-14 06:22 50.04365 8.57014 360 ft 0 kts 160°
2026-04-14 06:32 50.04358 8.57018 364 ft 2 kts 160°
2026-04-14 06:32 50.04339 8.57029 363 ft 4 kts 159°
2026-04-14 06:32 50.04309 8.57019 362 ft 7 kts 211°
2026-04-14 06:33 50.04279 8.56929 363 ft 12 kts 252°
2026-04-14 06:33 50.04247 8.56790 362 ft 15 kts 250°
2026-04-14 06:33 50.04207 8.56612 358 ft 20 kts 250°
2026-04-14 06:34 50.04099 8.56160 352 ft 20 kts 249°
2026-04-14 06:34 50.04046 8.55946 357 ft 23 kts 249°
2026-04-14 06:34 50.03987 8.55703 353 ft 25 kts 249°
2026-04-14 06:34 50.03925 8.55449 350 ft 25 kts 251°
2026-04-14 06:35 50.03865 8.55183 357 ft 27 kts 250°
2026-04-14 06:35 50.03797 8.54900 348 ft 29 kts 249°
2026-04-14 06:35 50.03724 8.54597 345 ft 31 kts 249°
2026-04-14 06:35 50.03645 8.54270 350 ft 33 kts 249°
2026-04-14 06:36 50.03568 8.53951 339 ft 32 kts 249°
2026-04-14 06:36 50.03488 8.53621 338 ft 33 kts 249°
2026-04-14 06:36 50.03415 8.53310 334 ft 29 kts 250°
2026-04-14 06:36 50.03343 8.53003 334 ft 31 kts 249°
2026-04-14 06:37 50.03272 8.52705 332 ft 23 kts 253°
2026-04-14 06:37 50.03209 8.52595 336 ft 16 kts 180°
2026-04-14 06:37 50.02927 8.52597 336 ft 86 kts 179°
2026-04-14 06:37 50.02039 8.52609 337 ft 168 kts 179°
2026-04-14 06:38 50.00746 8.52641 818 ft 199 kts 179°
2026-04-14 06:38 49.99242 8.52698 1396 ft 237 kts 179°
2026-04-14 06:38 49.97491 8.52767 2364 ft 261 kts 179°
2026-04-14 06:38 49.95641 8.52814 3685 ft 270 kts 179°
2026-04-14 06:39 49.93755 8.52856 5146 ft 272 kts 179°
2026-04-14 06:39 49.91826 8.52899 6535 ft 276 kts 180°
2026-04-14 06:39 49.89893 8.52943 7782 ft 280 kts 180°
2026-04-14 06:39 49.87963 8.52986 9067 ft 282 kts 181°
2026-04-14 06:40 49.85984 8.53029 10307 ft 286 kts 181°
2026-04-14 06:40 49.83907 8.53069 10929 ft 312 kts 181°
2026-04-14 06:40 49.81658 8.53113 11522 ft 332 kts 181°
2026-04-14 06:40 49.79313 8.53160 12447 ft 340 kts 181°
2026-04-14 06:41 49.76932 8.53208 13473 ft 344 kts 181°
2026-04-14 06:41 49.74517 8.53356 14408 ft 349 kts 178°
2026-04-14 06:41 49.72076 8.53473 15297 ft 352 kts 185°
2026-04-14 06:41 49.69627 8.53182 16206 ft 356 kts 186°
2026-04-14 06:42 49.67141 8.52857 17116 ft 360 kts 186°
2026-04-14 06:42 49.64635 8.52516 18003 ft 364 kts 186°
2026-04-14 06:42 49.62091 8.52161 18819 ft 369 kts 186°
2026-04-14 06:42 49.59553 8.51806 19570 ft 373 kts 186°
2026-04-14 06:43 49.56953 8.51445 20332 ft 377 kts 186°
2026-04-14 06:43 49.54321 8.51082 21090 ft 382 kts 186°
2026-04-14 06:43 49.51655 8.50720 21845 ft 387 kts 186°
2026-04-14 06:43 49.48964 8.50357 22584 ft 391 kts 186°
2026-04-14 06:44 49.46235 8.49992 23293 ft 396 kts 186°
2026-04-14 06:44 49.43480 8.49622 23930 ft 400 kts 186°
2026-04-14 06:44 49.40684 8.49247 24493 ft 404 kts 186°
2026-04-14 06:44 49.37871 8.48872 25068 ft 408 kts 186°
2026-04-14 06:45 49.35031 8.48493 25645 ft 411 kts 186°
2026-04-14 06:45 49.32182 8.48109 26218 ft 414 kts 186°
2026-04-14 06:45 49.29296 8.47723 26789 ft 417 kts 186°
2026-04-14 06:45 49.26392 8.47343 27353 ft 420 kts 186°
2026-04-14 06:46 49.20529 8.46589 28443 ft 426 kts 186°
2026-04-14 06:46 49.17560 8.46203 28942 ft 430 kts 186°
2026-04-14 06:46 49.14561 8.45813 29447 ft 433 kts 186°
2026-04-14 06:47 49.11552 8.45422 29933 ft 436 kts 186°
2026-04-14 06:47 49.08515 8.45025 30384 ft 439 kts 186°
2026-04-14 06:47 49.05519 8.44445 30767 ft 441 kts 192°
2026-04-14 06:47 49.02517 8.43408 31054 ft 443 kts 194°
2026-04-14 06:48 48.99534 8.42360 31120 ft 434 kts 194°
2026-04-14 06:48 48.93717 8.40340 31138 ft 426 kts 194°
2026-04-14 06:49 48.87948 8.38339 31143 ft 424 kts 194°
2026-04-14 06:49 48.82184 8.36348 31151 ft 425 kts 194°
2026-04-14 06:50 48.76430 8.34339 31150 ft 424 kts 194°
2026-04-14 06:50 48.70695 8.32245 31146 ft 424 kts 195°
2026-04-14 06:51 48.64958 8.30133 31141 ft 424 kts 195°
2026-04-14 06:51 48.59212 8.28040 31138 ft 424 kts 195°
2026-04-14 06:52 48.53476 8.25965 31133 ft 424 kts 195°
2026-04-14 06:52 48.47623 8.24901 31129 ft 427 kts 179°
2026-04-14 06:53 48.41762 8.26136 31132 ft 429 kts 172°
2026-04-14 06:53 48.35872 8.27581 31129 ft 429 kts 173°
2026-04-14 06:54 48.29972 8.29009 31117 ft 428 kts 172°
2026-04-14 06:54 48.24090 8.30428 31115 ft 428 kts 173°
2026-04-14 06:55 48.18197 8.31844 31116 ft 428 kts 173°
2026-04-14 06:55 48.12307 8.33251 31111 ft 428 kts 173°
2026-04-14 06:56 48.06427 8.34678 31111 ft 428 kts 172°
2026-04-14 06:56 48.00545 8.36112 31114 ft 428 kts 173°
2026-04-14 06:57 47.94659 8.37531 31115 ft 428 kts 173°
2026-04-14 06:57 47.88773 8.38946 31107 ft 428 kts 173°
2026-04-14 06:58 47.82930 8.40345 31111 ft 428 kts 173°
2026-04-14 06:58 47.77049 8.41755 31110 ft 428 kts 173°
2026-04-14 06:59 47.71164 8.43173 31097 ft 428 kts 172°
2026-04-14 06:59 47.65264 8.44421 31100 ft 428 kts 175°
2026-04-14 07:00 47.59321 8.45247 31104 ft 429 kts 176°
2026-04-14 07:00 47.53371 8.46009 31110 ft 429 kts 176°
2026-04-14 07:01 47.47462 8.46836 31113 ft 430 kts 176°
2026-04-14 07:01 47.41511 8.47710 31113 ft 430 kts 175°
2026-04-14 07:02 47.35550 8.48595 31111 ft 430 kts 175°
2026-04-14 07:02 47.29584 8.49477 31109 ft 431 kts 175°
2026-04-14 07:03 47.23617 8.50356 31105 ft 431 kts 175°
2026-04-14 07:03 47.17650 8.51226 31102 ft 431 kts 175°
2026-04-14 07:04 47.11674 8.52090 31096 ft 431 kts 175°
2026-04-14 07:04 47.05696 8.52952 31088 ft 432 kts 175°
2026-04-14 07:05 46.99712 8.53808 31090 ft 432 kts 175°
2026-04-14 07:05 46.93719 8.54681 31086 ft 433 kts 175°
2026-04-14 07:06 46.87763 8.55546 31079 ft 433 kts 175°
2026-04-14 07:06 46.81751 8.56404 31069 ft 434 kts 175°
2026-04-14 07:07 46.75735 8.57262 31073 ft 435 kts 175°
2026-04-14 07:07 46.69714 8.58116 31056 ft 435 kts 175°
2026-04-14 07:08 46.63696 8.58977 31030 ft 435 kts 175°
2026-04-14 07:08 46.57668 8.59844 31037 ft 435 kts 175°
2026-04-14 07:09 46.51677 8.60695 31033 ft 435 kts 176°
2026-04-14 07:09 46.45650 8.61542 31009 ft 435 kts 175°
2026-04-14 07:10 46.39615 8.62393 30975 ft 436 kts 176°
2026-04-14 07:10 46.33587 8.63236 30968 ft 435 kts 175°
2026-04-14 07:11 46.27548 8.64090 30952 ft 435 kts 175°
2026-04-14 07:11 46.21521 8.64935 30925 ft 435 kts 175°
2026-04-14 07:12 46.15484 8.65773 30926 ft 436 kts 175°
2026-04-14 07:12 46.09438 8.66231 30926 ft 434 kts 185°
2026-04-14 07:13 46.03453 8.65079 30923 ft 434 kts 189°
2026-04-14 07:13 45.97473 8.63837 30918 ft 434 kts 188°
2026-04-14 07:14 45.91490 8.62609 30923 ft 434 kts 189°
2026-04-14 07:14 45.85499 8.61393 30915 ft 435 kts 188°
2026-04-14 07:15 45.79504 8.60181 30905 ft 435 kts 188°
2026-04-14 07:15 45.73558 8.58975 30900 ft 435 kts 188°
2026-04-14 07:16 45.67555 8.57757 30924 ft 435 kts 188°
2026-04-14 07:16 45.61547 8.56541 30922 ft 436 kts 188°
2026-04-14 07:17 45.56514 8.55537 30927 ft 436 kts 188°
2026-04-14 07:17 45.50502 8.54331 30923 ft 436 kts 188°
2026-04-14 07:18 45.44481 8.53119 30927 ft 437 kts 188°
2026-04-14 07:18 45.38501 8.51922 30921 ft 437 kts 188°
2026-04-14 07:19 45.32471 8.50718 30912 ft 437 kts 188°
2026-04-14 07:19 45.26438 8.49521 30909 ft 438 kts 188°
2026-04-14 07:20 45.20406 8.48320 30911 ft 438 kts 188°
2026-04-14 07:20 45.14365 8.47122 30910 ft 438 kts 188°
2026-04-14 07:21 45.08327 8.45925 30831 ft 437 kts 188°
2026-04-14 07:21 45.05303 8.45328 30549 ft 440 kts 188°
2026-04-14 07:21 45.02260 8.44724 30179 ft 441 kts 188°
2026-04-14 07:21 44.99213 8.44121 29772 ft 442 kts 188°
2026-04-14 07:22 44.96169 8.43523 29342 ft 440 kts 188°
2026-04-14 07:22 44.93146 8.42929 28919 ft 438 kts 188°
2026-04-14 07:22 44.90145 8.42337 28500 ft 435 kts 188°
2026-04-14 07:22 44.87149 8.41746 28092 ft 433 kts 188°
2026-04-14 07:23 44.84170 8.41164 27685 ft 432 kts 188°
2026-04-14 07:23 44.81245 8.40595 27291 ft 428 kts 188°
2026-04-14 07:23 44.78271 8.40019 26894 ft 424 kts 187°
2026-04-14 07:23 44.75390 8.39456 26513 ft 422 kts 187°
2026-04-14 07:24 44.72489 8.38886 26126 ft 420 kts 187°
2026-04-14 07:24 44.69602 8.38318 25750 ft 417 kts 187°
2026-04-14 07:24 44.66740 8.37755 25373 ft 414 kts 187°
2026-04-14 07:24 44.63901 8.37200 25006 ft 411 kts 187°
2026-04-14 07:25 44.61078 8.36649 24644 ft 408 kts 187°
2026-04-14 07:25 44.58273 8.36103 24287 ft 406 kts 187°
2026-04-14 07:25 44.55477 8.35560 23932 ft 404 kts 187°
2026-04-14 07:25 44.52703 8.35022 23584 ft 401 kts 187°
2026-04-14 07:26 44.49952 8.34484 23186 ft 399 kts 187°
2026-04-14 07:26 44.47211 8.33953 22781 ft 396 kts 187°
2026-04-14 07:26 44.44490 8.33430 22375 ft 394 kts 187°
2026-04-14 07:26 44.41777 8.32907 21973 ft 392 kts 186°
2026-04-14 07:27 44.39084 8.32389 21576 ft 390 kts 187°
2026-04-14 07:27 44.36405 8.31854 21179 ft 389 kts 188°
2026-04-14 07:27 44.33833 8.30912 20798 ft 388 kts 199°
2026-04-14 07:27 44.31380 8.29364 20411 ft 387 kts 208°
2026-04-14 07:28 44.29144 8.27268 20041 ft 386 kts 219°
2026-04-14 07:28 44.27204 8.24705 19671 ft 385 kts 228°
2026-04-14 07:28 44.25581 8.21754 19300 ft 384 kts 236°
2026-04-14 07:28 44.24066 8.18684 18941 ft 382 kts 236°
2026-04-14 07:29 44.22553 8.15641 18584 ft 380 kts 235°
2026-04-14 07:29 44.21050 8.12629 18229 ft 379 kts 236°
2026-04-14 07:29 44.19541 8.09604 17825 ft 379 kts 235°
2026-04-14 07:29 44.18047 8.06601 17425 ft 376 kts 235°
2026-04-14 07:30 44.16561 8.03620 17029 ft 373 kts 236°
2026-04-14 07:30 44.15084 8.00657 16889 ft 373 kts 235°
2026-04-14 07:30 44.13622 7.97722 16927 ft 374 kts 235°
2026-04-14 07:30 44.12133 7.94749 16918 ft 374 kts 235°
2026-04-14 07:31 44.10647 7.91794 16840 ft 372 kts 235°
2026-04-14 07:31 44.09169 7.88860 16228 ft 370 kts 235°
2026-04-14 07:31 44.07702 7.85941 15634 ft 368 kts 235°
2026-04-14 07:31 44.06239 7.83029 15136 ft 365 kts 235°
2026-04-14 07:32 44.04793 7.80143 14612 ft 363 kts 235°
2026-04-14 07:32 44.03352 7.77268 14095 ft 363 kts 235°
2026-04-14 07:32 44.01904 7.74394 13908 ft 363 kts 235°
2026-04-14 07:32 44.00461 7.71541 13897 ft 359 kts 235°
2026-04-14 07:33 43.99016 7.68684 13904 ft 362 kts 235°
2026-04-14 07:33 43.97567 7.65812 13909 ft 364 kts 235°
2026-04-14 07:33 43.96121 7.62939 13892 ft 361 kts 236°
2026-04-14 07:34 43.91834 7.54450 13891 ft 355 kts 235°
2026-04-14 07:34 43.90415 7.51660 13894 ft 354 kts 235°
2026-04-14 07:34 43.88993 7.48868 13864 ft 353 kts 235°
2026-04-14 07:35 43.87589 7.46127 13635 ft 342 kts 233°
2026-04-14 07:35 43.85931 7.43870 13502 ft 328 kts 215°
2026-04-14 07:35 43.83938 7.42481 13352 ft 316 kts 197°
2026-04-14 07:35 43.81827 7.41988 13021 ft 310 kts 179°
2026-04-14 07:36 43.79713 7.42376 12617 ft 306 kts 161°
2026-04-14 07:36 43.77796 7.43589 12203 ft 302 kts 144°
2026-04-14 07:36 43.76152 7.45388 11927 ft 302 kts 137°
2026-04-14 07:36 43.74529 7.47222 11671 ft 301 kts 138°
2026-04-14 07:37 43.72900 7.49036 11421 ft 300 kts 139°
2026-04-14 07:37 43.71273 7.50839 11166 ft 299 kts 139°
2026-04-14 07:37 43.69685 7.52677 10908 ft 296 kts 133°
2026-04-14 07:37 43.68351 7.54801 10660 ft 292 kts 122°
2026-04-14 07:38 43.67324 7.57204 10421 ft 288 kts 112°
2026-04-14 07:38 43.66601 7.59776 10186 ft 286 kts 105°
2026-04-14 07:38 43.65943 7.62359 9945 ft 285 kts 105°
2026-04-14 07:38 43.65276 7.64946 9696 ft 284 kts 105°
2026-04-14 07:39 43.64612 7.67511 9448 ft 283 kts 106°
2026-04-14 07:39 43.63951 7.70066 9173 ft 282 kts 106°
2026-04-14 07:39 43.63291 7.72625 8907 ft 282 kts 106°
2026-04-14 07:39 43.62637 7.75162 8653 ft 281 kts 106°
2026-04-14 07:40 43.61979 7.77699 8395 ft 281 kts 107°
2026-04-14 07:40 43.60983 7.79983 8136 ft 286 kts 129°
2026-04-14 07:40 43.59337 7.81588 7877 ft 289 kts 155°
2026-04-14 07:40 43.57421 7.82099 7630 ft 283 kts 177°
2026-04-14 07:41 43.55474 7.82131 7383 ft 275 kts 178°
2026-04-14 07:41 43.53586 7.82162 7134 ft 268 kts 177°
2026-04-14 07:41 43.51741 7.82196 6889 ft 263 kts 177°
2026-04-14 07:41 43.49922 7.82234 6645 ft 260 kts 177°
2026-04-14 07:42 43.48111 7.82273 6399 ft 259 kts 177°
2026-04-14 07:42 43.46316 7.82309 6153 ft 258 kts 178°
2026-04-14 07:42 43.44582 7.81879 5905 ft 258 kts 202°
2026-04-14 07:42 43.43086 7.80496 5636 ft 256 kts 228°
2026-04-14 07:43 43.42159 7.78487 5388 ft 251 kts 252°
2026-04-14 07:43 43.41868 7.76165 5137 ft 245 kts 275°
2026-04-14 07:43 43.41971 7.73825 4889 ft 245 kts 277°
2026-04-14 07:43 43.42079 7.71490 4639 ft 244 kts 277°
2026-04-14 07:44 43.42190 7.69101 4379 ft 263 kts 276°
2026-04-14 07:44 43.42308 7.66535 4126 ft 272 kts 276°
2026-04-14 07:44 43.42420 7.63940 4004 ft 272 kts 275°
2026-04-14 07:44 43.42531 7.61343 4015 ft 272 kts 275°
2026-04-14 07:45 43.42643 7.58737 4018 ft 272 kts 275°
2026-04-14 07:45 43.42753 7.56147 4013 ft 269 kts 274°
2026-04-14 07:45 43.42859 7.53579 4014 ft 269 kts 274°
2026-04-14 07:45 43.42966 7.51012 4014 ft 269 kts 274°
2026-04-14 07:46 43.43075 7.48474 4017 ft 269 kts 274°
2026-04-14 07:46 43.43188 7.45910 4017 ft 268 kts 274°
2026-04-14 07:46 43.43300 7.43346 4012 ft 269 kts 274°
2026-04-14 07:46 43.43409 7.40772 4012 ft 268 kts 274°
2026-04-14 07:47 43.43516 7.38208 4014 ft 268 kts 274°
2026-04-14 07:47 43.43622 7.35650 4021 ft 268 kts 274°
2026-04-14 07:47 43.43729 7.33081 4014 ft 269 kts 274°
2026-04-14 07:47 43.43836 7.30511 4023 ft 268 kts 274°
2026-04-14 07:48 43.43943 7.27951 4026 ft 269 kts 274°
2026-04-14 07:48 43.44047 7.25448 4021 ft 251 kts 274°
2026-04-14 07:48 43.44139 7.23176 4024 ft 232 kts 274°
2026-04-14 07:48 43.44223 7.21036 4025 ft 215 kts 274°
2026-04-14 07:49 43.44301 7.19033 4026 ft 206 kts 274°
2026-04-14 07:49 43.44380 7.17066 4027 ft 205 kts 274°
2026-04-14 07:49 43.44457 7.15103 4030 ft 206 kts 274°
2026-04-14 07:49 43.44535 7.13140 4033 ft 205 kts 274°
2026-04-14 07:50 43.44613 7.11169 4034 ft 205 kts 274°
2026-04-14 07:50 43.44687 7.09259 4034 ft 196 kts 274°
2026-04-14 07:50 43.44759 7.07395 4034 ft 195 kts 274°
2026-04-14 07:50 43.44829 7.05539 4034 ft 194 kts 274°
2026-04-14 07:51 43.44902 7.03707 4033 ft 194 kts 274°
2026-04-14 07:51 43.44975 7.01849 4035 ft 195 kts 274°
2026-04-14 07:51 43.45047 6.99986 4036 ft 195 kts 274°
2026-04-14 07:51 43.45255 6.98151 4018 ft 194 kts 296°
2026-04-14 07:52 43.46171 6.96857 4034 ft 191 kts 336°
2026-04-14 07:52 43.47465 6.96674 4038 ft 190 kts 15°
2026-04-14 07:52 43.48562 6.97641 4054 ft 189 kts 45°
2026-04-14 07:52 43.49493 6.98924 4034 ft 186 kts 45°
2026-04-14 07:53 43.50378 7.00136 4045 ft 171 kts 45°
2026-04-14 07:53 43.51213 7.01275 3850 ft 168 kts 45°
2026-04-14 07:53 43.52036 7.02399 3640 ft 165 kts 45°
2026-04-14 07:53 43.52840 7.03497 3430 ft 164 kts 45°
2026-04-14 07:54 43.53657 7.04613 3214 ft 163 kts 45°
2026-04-14 07:54 43.54451 7.05698 3001 ft 162 kts 45°
2026-04-14 07:54 43.55263 7.06808 2782 ft 162 kts 44°
2026-04-14 07:54 43.56052 7.07887 2559 ft 160 kts 44°
2026-04-14 07:55 43.56820 7.08938 2363 ft 152 kts 44°
2026-04-14 07:55 43.57532 7.09914 2167 ft 137 kts 44°
2026-04-14 07:55 43.58183 7.10804 1987 ft 128 kts 44°
2026-04-14 07:55 43.58804 7.11654 1814 ft 124 kts 44°
2026-04-14 07:56 43.59415 7.12497 1660 ft 124 kts 44°
2026-04-14 07:56 43.60029 7.13368 1519 ft 128 kts 44°
2026-04-14 07:56 43.60650 7.14246 1416 ft 127 kts 44°
2026-04-14 07:56 43.61269 7.15085 1280 ft 123 kts 41°
2026-04-14 07:57 43.61888 7.15914 1084 ft 124 kts 43°
2026-04-14 07:57 43.62494 7.16760 862 ft 123 kts 43°
2026-04-14 07:57 43.63099 7.17585 643 ft 121 kts 43°
2026-04-14 07:57 43.63686 7.18379 486 ft 114 kts 42°
2026-04-14 07:58 43.64228 7.19140 349 ft 111 kts 44°
2026-04-14 07:58 43.64801 7.19909 233 ft 116 kts 42°
2026-04-14 07:58 43.65363 7.20669 51 ft 109 kts 32°
2026-04-14 07:58 43.65773 7.21221 24 ft 51 kts 46°
2026-04-14 07:59 43.65935 7.21450 22 ft 23 kts 45°
2026-04-14 07:59 43.66031 7.21582 21 ft 20 kts 43°
2026-04-14 07:59 43.66133 7.21718 22 ft 19 kts 43°
2026-04-14 07:59 43.66214 7.21744 22 ft 10 kts 340°
2026-04-14 08:00 43.66258 7.21697 23 ft 11 kts 315°
2026-04-14 08:00 43.66344 7.21584 22 ft 13 kts 315°
2026-04-14 08:00 43.66361 7.21561 22 ft 0 kts 316°
2026-04-14 08:01 43.66370 7.21540 22 ft 4 kts 297°
2026-04-14 08:01 43.66372 7.21496 22 ft 5 kts 255°
2026-04-14 08:01 43.66353 7.21433 22 ft 10 kts 255°
2026-04-14 08:02 43.66345 7.21320 22 ft 12 kts 286°
2026-04-14 08:02 43.66395 7.21301 24 ft 9 kts 350°
2026-04-14 08:02 43.66401 7.21300 23 ft 0 kts 350°